Theta_e
291 292 291 291 291 291 290 289 289 289 290 290 291 291 292 293 292 293 293 293 293 294 295 294 294 294 294 293 292 292 292 292
289 290 289 289 289 289 288 288 287 288 289 289 289 288 288 288 289 291 291 291 291 291 291 292 292 293 292 291 291 290 290 290
288 287 287 287 287 286 287 287 287 286 287 287 288 287 286 286 286 288 288 290 290 290 290 290 290 291 291 289 289 289 289 289
287 286 286 286 286 286 285 285 286 285 286 286 286 286 285 285 285 286 286 287 288 288 288 288 289 289 289 289 288 288 289 288
285 286 286 286 285 285 285 285 286 285 284 284 285 285 284 284 284 285 285 285 285 286 287 287 287 287 287 287 287 287 288 288
283 284 285 286 285 285 285 285 285 284 284 283 284 284 284 283 282 283 284 284 285 284 285 285 286 285 286 286 285 285 286 287
283 284 284 285 285 285 284 285 285 283 283 283 282 282 282 281 281 281 282 283 283 283 283 283 284 287 288 287 285 285 284 284
283 284 284 284 285 285 284 284 283 282 282 282 281 281 281 280 279 279 279 281 280 281 282 282 283 286 287 288 285 285 284 284
284 284 285 285 285 284 283 282 281 281 280 281 281 279 280 279 278 277 278 278 279 279 280 281 282 285 286 287 286 285 285 285
285 285 284 284 284 282 280 280 279 279 279 279 279 278 278 276 276 276 276 276 276 278 278 278 280 283 284 284 284 284 284 285
285 284 283 283 282 279 278 277 277 277 278 278 277 276 276 276 275 276 275 275 275 275 276 276 276 280 283 283 283 283 283 284
283 281 281 280 278 276 275 274 275 275 275 274 274 274 274 273 274 273 272 272 271 272 273 273 275 277 281 283 282 282 282 283
278 278 277 276 275 272 272 273 272 270 269 268 268 269 269 268 269 269 269 268 268 269 270 272 274 277 280 282 283 284 282 282
274 273 273 272 271 269 269 269 267 265 264 264 264 264 265 265 265 265 266 266 266 267 267 269 272 275 279 281 283 283 282 283
271 269 268 269 269 267 267 266 263 262 262 262 262 262 263 264 264 263 263 263 264 264 265 267 269 271 274 277 280 281 281 282
268 266 266 267 266 265 264 263 261 261 261 261 262 262 262 263 263 263 263 264 262 263 264 264 265 268 273 275 277 279 279 279
265 265 264 264 263 263 263 262 260 260 260 260 260 261 261 261 262 266 267 269 269 270 269 268 271 273 274 275 276 278 280 279
263 263 262 261 261 262 262 261 259 258 259 259 260 260 260 260 260 259 263 267 268 269 270 270 271 272 273 275 276 278 279 278
261 260 260 260 260 262 262 261 259 259 259 260 260 260 261 261 261 261 260 260 261 265 267 268 270 271 273 275 276 274 276 278
259 259 260 260 260 262 261 260 259 259 259 260 261 262 262 262 262 262 262 262 262 263 265 266 269 271 273 276 275 275 276 277
Wind_Speed
11 12 11 13 14 15 14 14 13 14 12 11 11 11 11 9 11 11 9 8 9 7 6 7 9 10 11 10 9 11 10 10
9 10 10 10 10 11 12 12 11 11 11 11 10 11 10 10 11 11 11 10 8 8 6 6 8 9 9 11 10 12 12 12
5 6 8 9 8 9 9 10 11 10 10 9 10 10 10 11 11 11 11 11 10 10 7 5 8 9 10 12 10 14 13 14
5 6 7 7 7 8 9 8 8 10 8 7 7 9 9 10 10 10 10 10 10 10 11 8 6 8 10 12 12 14 15 14
6 8 8 9 10 10 10 9 8 10 8 7 7 8 7 8 9 10 10 10 9 8 9 11 8 7 9 11 12 13 14 15
5 6 8 8 9 10 11 10 10 12 11 10 10 10 9 8 8 9 8 8 8 9 9 9 9 7 9 11 12 13 15 16
6 7 8 9 9 9 10 9 9 11 12 12 10 10 10 9 10 10 11 10 10 10 10 9 7 14 17 15 13 14 14 16
8 9 10 11 10 11 11 9 7 9 10 10 10 11 11 10 12 12 13 13 12 13 12 11 11 18 20 19 11 13 16 17
9 11 11 11 11 10 8 8 10 11 11 11 11 12 12 12 13 13 12 13 13 14 14 14 13 22 22 20 14 14 16 18
8 10 12 12 9 8 8 10 11 12 13 13 13 14 14 14 14 15 13 14 15 15 16 16 17 23 24 20 13 15 17 17
8 10 11 11 11 10 12 12 13 13 14 14 15 15 16 16 17 16 15 16 14 17 18 20 20 26 28 23 11 15 13 14
9 11 11 11 11 13 14 15 15 14 15 15 15 16 17 18 17 16 16 17 19 19 19 20 21 22 30 29 15 13 13 13
10 12 12 12 11 14 16 16 16 16 17 17 16 14 14 18 17 18 17 19 20 19 18 15 19 26 28 31 31 26 15 15
8 12 13 10 10 14 16 16 17 17 18 17 17 16 15 17 17 15 16 16 16 15 16 16 14 14 29 31 31 29 20 14
9 11 13 11 12 12 15 15 15 17 17 16 16 17 16 13 13 13 13 14 14 15 16 16 14 14 13 13 12 17 17 21
9 11 14 13 13 13 14 14 16 16 16 16 14 16 15 14 13 13 15 16 15 15 16 16 17 14 24 24 12 9 12 12
10 12 13 14 14 14 13 13 15 16 14 13 14 13 14 14 14 23 31 33 34 36 29 17 33 38 38 36 37 37 34 11
12 13 14 14 15 14 13 13 16 16 16 13 15 14 15 14 14 16 17 31 33 34 34 35 34 37 36 36 36 35 30 16
11 12 13 14 15 14 14 15 15 16 21 15 13 14 14 14 15 14 15 16 16 21 25 28 32 32 33 31 29 17 20 14
11 12 11 13 15 13 14 15 16 14 13 13 13 14 16 15 15 14 15 15 15 14 19 18 27 28 28 31 14 8 8 10
Wind_Direction
24 29 30 23 14 23 28 26 18 13 19 23 21 15 13 7 8 351 330 315 301 273 265 239 245 235 224 225 223 224 223 218
15 11 28 35 26 16 15 16 13 17 12 7 12 11 8 7 5 358 341 334 310 298 279 261 250 237 234 234 232 226 226 226
7 23 22 18 17 16 11 8 357 10 12 8 0 1 3 2 356 349 348 340 334 319 293 266 264 256 238 236 230 241 228 224
352 8 16 8 4 8 4 2 344 347 3 360 360 354 354 349 343 339 337 337 340 332 315 301 272 266 257 248 243 240 239 232
335 340 348 348 351 349 346 347 348 334 346 343 341 340 344 333 329 325 324 324 329 327 313 302 292 278 266 258 250 246 245 237
329 331 324 318 318 325 329 325 330 333 330 331 326 325 321 312 313 307 300 302 305 305 305 301 298 291 285 269 260 248 250 245
329 324 317 311 301 306 300 307 325 317 310 315 317 315 311 308 308 306 300 294 298 298 294 295 285 278 274 269 269 264 253 251
314 327 324 324 317 297 302 310 304 294 293 295 300 297 299 302 306 306 308 304 301 299 293 287 282 282 279 268 254 254 257 252
302 311 319 320 313 313 305 298 295 291 291 290 285 287 287 293 294 299 300 299 296 292 289 285 281 282 281 275 262 255 253 252
295 310 315 318 322 326 311 301 297 294 291 290 288 287 284 281 283 287 290 290 290 286 284 280 276 277 279 277 265 258 254 251
334 312 314 328 336 329 310 308 303 300 295 295 294 290 285 283 284 284 283 282 283 283 281 281 280 276 273 270 260 258 257 253
316 314 320 336 337 314 309 306 309 310 306 303 299 296 294 292 288 287 285 283 279 278 279 278 273 274 270 265 257 249 252 249
323 313 322 331 333 311 306 316 317 314 308 307 305 300 296 293 291 287 284 279 276 276 276 271 272 270 270 264 256 253 249 248
328 314 313 324 320 306 309 318 314 310 306 305 303 299 294 291 290 288 283 278 277 275 276 278 275 272 274 270 265 257 255 253
318 305 304 316 311 306 309 310 306 301 300 301 297 296 291 285 283 283 283 282 280 278 275 276 278 275 276 273 264 260 261 261
310 302 301 310 308 308 306 307 302 300 299 297 292 291 292 284 282 278 273 270 272 268 269 273 271 272 281 289 289 265 245 261
301 299 300 305 303 305 305 303 304 301 298 297 297 294 291 290 286 278 283 284 283 282 277 271 272 275 274 271 271 275 276 249
303 301 302 302 300 300 303 305 297 294 294 293 291 290 291 289 289 291 287 286 285 285 285 283 279 275 271 269 268 268 259 251
300 294 294 295 293 304 306 299 293 291 290 290 289 287 286 286 286 286 288 291 289 284 284 283 282 279 276 279 278 250 252 242
290 286 289 299 297 308 307 301 298 296 291 290 290 291 290 289 286 284 283 283 285 290 288 283 284 285 276 266 266 270 263 212